Location: Denia
(38.8500°N, 0.1170°E)
Time: 00:09:37
(UTC+01:00)

Envisat - Pass Details

Date: 25 January 2020
Orbit: 764 x 766 km, 98.1° (Epoch: 24 February)

Event Time Altitude Azimuth Distance (km) Brightness Sun altitude
Rises 20:06:25 0° 209° (SSW) 3,219 6.7 -22.2°
Reaches altitude 10° 20:09:35 10° 230° (SW) 2,298 6.2 -22.8°
Maximum altitude 20:12:41 16° 268° (W) 1,903 6.0 -23.4°
Drops below altitude 10° 20:15:49 10° 307° (NW) 2,308 6.1 -24.0°
Sets 20:19:01 0° 328° (NNW) 3,239 6.6 -24.6°
